FW6131 Weather Reports


time (UTC)temp
F
wind
direction
speed
knots
gust
knots
rain 1hr
in
rain 24hr
in
rain mn
in
humidity
%
barometer
mb
20260505124541 58 8 1.7 4.3 0.00 0.00 0.00 71 1011.6
20260505123057 57 100 2.6 7.0 0.00 0.00 0.00 71 1011.8
20260505121539 58 33 3.5 7.0 0.00 0.00 0.00 71 1011.8
20260505120037 57 360 1.7 5.2 0.00 0.00 0.00 71 1011.8
20260505114551 57 22 1.7 7.8 0.00 0.00 0.00 73 1011.8
20260505113039 57 12 3.5 7.0 0.00 0.00 0.00 73 1011.8
20260505111554 58 56 2.6 8.7 0.00 0.00 0.00 71 1011.8
20260505101541 58 355 1.7 8.7 0.00 0.00 0.00 72 1012.3
20260505100039 57 342 1.7 8.7 0.00 0.00 0.00 72 1012.2
20260505094539 57 47 3.5 9.6 0.00 0.00 0.00 71 1012.4
20260505093038 57 350 2.6 10.4 0.00 0.00 0.00 73 1012.4
20260505091536 56 20 2.6 9.6 0.00 0.00 0.00 71 1012.5
20260505090038 55 29 4.3 7.8 0.00 0.00 0.00 75 1012.6
20260505084543 54 31 2.6 9.6 0.00 0.00 0.00 78 1012.7
20260505083046 53 59 2.6 7.8 0.00 0.00 0.00 80 1012.7
20260505081546 52 23 1.7 7.0 0.00 0.00 0.00 81 1012.7
20260505080040 51 20 2.6 7.0 0.00 0.00 0.00 82 1012.7
20260505074541 50 355 2.6 7.0 0.00 0.00 0.00 83 1012.8
20260505073040 50 355 2.6 7.8 0.00 0.00 0.00 84 1012.9
20260505071540 49 355 3.5 7.8 0.00 0.00 0.00 86 1012.9
20260505070045 49 355 2.6 7.8 0.00 0.00 0.00 85 1012.8
20260505064555 48 355 2.6 7.8 0.00 0.00 0.00 86 1012.8
20260505063046 47 355 0.9 8.7 0.00 0.00 0.00 87 1012.9
20260505061542 47 355 2.6 7.8 0.00 0.00 0.00 87 1013.0
20260505060042 47 0 1.7 4.3 0.00 0.00 0.00 88 1013.0
20260505054538 46 355 2.6 5.2 0.00 0.00 0.00 88 1012.9
20260505053041 46 355 0.9 5.2 0.00 0.00 0.00 88 1013.0
20260505051539 46 355 0.9 4.3 0.00 0.00 0.00 88 1013.1
20260505041544 46 355 1.7 5.2 0.00 0.00 0.00 87 1012.9
20260505040037 46 355 1.7 4.3 0.00 0.00 0.00 87 1012.9
20260505034542 46 355 0.9 4.3 0.00 0.00 0.00 87 1013.0
20260505033038 46 355 0.9 5.2 0.00 0.00 0.00 87 1012.9
20260505031537 47 355 1.7 5.2 0.00 0.00 0.00 87 1013.0
20260505030037 47 0 1.7 3.5 0.00 0.00 0.00 87 1013.0
20260505024543 47 355 0.9 3.5 0.00 0.00 0.00 86 1013.1
20260505023046 47 355 0.9 3.5 0.00 0.00 0.00 85 1013.2
20260505021544 47 355 0.9 4.3 0.00 0.00 0.00 85 1013.2
20260505020037 48 355 1.7 3.5 0.00 0.00 0.00 85 1013.2
20260505014542 48 355 0.9 3.5 0.00 0.00 0.00 85 1013.4
20260505013036 48 355 0.9 3.5 0.00 0.00 0.00 85 1013.2
20260505011536 48 0 0.0 1.7 0.00 0.00 0.00 85 1013.4
20260505010105 48 0 0.0 1.7 0.00 0.00 0.00 85 1013.6
20260505004538 48 0 0.0 2.6 0.00 0.00 0.00 85 1013.7
20260505003038 48 355 0.0 2.6 0.00 0.00 0.00 85 1013.8
20260505001548 48 355 0.9 4.3 0.00 0.00 0.00 85 1013.9
20260505000042 48 355 0.9 4.3 0.00 0.00 0.00 85 1013.9
20260504234535 48 355 1.7 7.0 0.00 0.01 0.00 85 1013.9
20260504233039 48 355 0.9 7.0 0.00 0.01 0.00 85 1013.8
20260504231554 48 355 1.7 7.0 0.00 0.01 0.00 85 1013.9
20260504230037 48 355 1.7 5.2 0.00 0.01 0.00 85 1014.0
20260504224540 49 355 1.7 5.2 0.00 0.01 0.00 85 1014.1
20260504223037 49 0 0.0 4.3 0.00 0.01 0.00 85 1014.3
20260504221546 49 0 1.7 7.0 0.00 0.01 0.00 85 1014.2
20260504220043 50 355 0.9 7.8 0.00 0.01 0.00 86 1014.3
20260504214538 50 355 1.7 5.2 0.00 0.01 0.01 87 1014.2
20260504213037 50 355 0.0 2.6 0.00 0.01 0.01 89 1014.3
20260504211547 50 355 0.9 2.6 0.00 0.01 0.01 89 1014.3
20260504210057 50 355 0.0 2.6 0.00 0.01 0.01 90 1014.4
20260504204547 50 0 0.0 1.7 0.00 0.03 0.01 89 1014.4
20260504203045 50 355 0.0 2.6 0.00 0.03 0.01 89 1014.3
20260504201546 51 0 0.0 0.0 0.00 0.03 0.01 88 1014.3
20260504200038 52 0 0.0 0.9 0.00 0.03 0.01 88 1014.2
20260504194558 52 0 0.0 2.6 0.00 0.03 0.01 86 1014.2
20260504193038 53 0 0.0 1.7 0.00 0.03 0.01 85 1014.2
20260504191545 54 0 0.0 2.6 0.00 0.03 0.01 84 1014.1
20260504190044 55 355 0.0 3.5 0.00 0.03 0.01 83 1014.1
20260504184541 55 0 0.0 3.5 0.00 0.03 0.01 82 1014.1
20260504183037 56 0 0.0 3.5 0.00 0.03 0.01 81 1014.1
20260504181544 57 294 0.0 4.3 0.00 0.03 0.01 80 1013.8
20260504174536 58 0 0.9 2.6 0.00 0.03 0.01 79 1013.8
20260504173044 59 337 0.0 3.5 0.00 0.03 0.01 77 1013.8
20260504171538 60 286 0.9 3.5 0.00 0.03 0.01 75 1013.7